Date,TemperatureHighF,TemperatureAvgF,TemperatureLowF,DewpointHighF,DewpointAvgF,DewpointLowF,HumidityHigh,HumidityAvg,HumidityLow,PressureMaxIn,PressureMinIn,WindSpeedMaxMPH,WindSpeedAvgMPH,GustSpeedMaxMPH,PrecipitationSumIn
2013-1-1,46.1,40.1,34.9,34.0,29.0,22.0,76,65,56,30.02,29.90,5,2,8,0.00
2013-1-2,38.0,34.2,27.9,32.0,28.6,23.0,89,80,72,30.23,29.99,5,1,6,0.00
2013-1-3,39.5,31.5,25.8,25.0,21.7,19.0,86,68,51,30.25,30.15,7,2,10,0.00
2013-1-4,45.2,36.7,27.4,24.0,20.6,18.0,72,54,37,30.23,30.12,10,4,17,0.00
2013-1-5,48.3,38.7,28.0,30.0,21.8,18.0,71,52,34,30.37,30.18,6,2,11,0.01
2013-1-6,50.7,40.5,28.3,35.0,29.8,26.0,90,67,44,30.17,30.03,9,2,13,0.02
2013-1-7,45.9,39.8,29.9,30.0,28.3,25.0,81,64,53,30.44,30.15,8,2,14,0.00
2013-1-8,51.7,37.9,23.6,36.0,29.8,21.0,92,74,50,30.43,30.35,9,2,12,0.00
2013-1-9,59.8,45.8,28.2,48.0,37.7,25.0,93,75,36,30.39,30.26,11,3,14,0.00
2013-1-10,56.5,47.0,33.5,33.0,29.7,25.0,74,52,33,30.57,30.39,9,2,13,0.00
2013-1-11,44.0,40.8,36.4,41.0,36.0,29.0,97,83,70,30.47,30.09,6,2,10,0.01
2013-1-12,52.7,43.5,39.6,48.0,42.4,39.0,98,95,84,30.17,30.09,5,2,7,0.01
2013-1-13,58.4,51.4,42.9,57.0,50.6,42.0,98,97,91,30.12,29.97,7,2,10,0.00
2013-1-14,60.2,53.3,39.1,58.0,50.0,38.0,97,89,73,30.28,29.96,10,4,14,0.19
2013-1-15,39.0,37.5,36.1,38.0,36.4,35.0,97,95,94,30.32,30.14,8,4,10,0.93
2013-1-16,40.7,37.6,34.5,40.0,36.7,34.0,97,96,94,30.14,29.88,13,3,14,0.24
2013-1-17,43.0,39.3,34.4,42.0,37.9,33.0,98,94,83,30.12,29.98,7,2,8,0.06
2013-1-18,42.3,36.2,28.7,33.0,22.6,13.0,94,60,36,30.49,30.10,19,4,25,0.00
2013-1-19,53.4,38.8,27.8,34.0,28.6,24.0,84,68,45,30.42,30.01,11,5,15,0.00
2013-1-20,58.2,45.8,33.8,34.0,22.7,2.0,78,45,17,30.06,29.86,18,6,24,0.00
2013-1-21,50.5,38.2,28.7,24.0,15.2,5.0,68,40,23,30.07,29.77,13,4,27,0.00
2013-1-22,31.0,22.7,17.9,10.0,-1.2,-5.0,44,35,26,30.29,29.93,13,6,25,0.00
2013-1-23,28.6,21.4,12.5,17.0,2.6,-2.0,86,46,31,30.35,30.13,11,3,16,0.00
2013-1-24,27.0,20.7,13.0,17.0,9.7,1.0,91,66,34,30.54,30.07,17,4,29,0.01
2013-1-25,23.2,18.8,12.5,18.0,12.4,5.0,87,77,55,30.53,30.07,10,3,17,0.00
2013-1-26,35.9,27.1,19.2,26.0,21.9,17.0,91,81,65,30.44,30.08,5,1,7,0.00
2013-1-27,37.4,29.9,25.0,25.0,23.3,21.0,91,77,60,30.60,30.44,8,1,13,0.00
2013-1-28,48.6,36.8,30.6,44.0,33.8,25.0,95,89,75,30.47,30.08,10,4,14,0.20
2013-1-29,72.4,59.3,45.4,57.0,50.9,42.0,92,75,57,30.12,29.95,10,3,12,0.00
2013-1-30,67.9,60.9,55.4,63.0,57.1,49.0,97,87,74,29.95,29.22,31,6,43,1.18
2013-1-31,58.9,41.7,29.8,57.0,26.2,15.0,98,55,43,29.90,29.21,19,10,32,1.29
2013-2-1,31.3,26.2,18.3,29.0,10.9,3.0,90,54,38,30.38,29.78,19,6,28,0.00
2013-2-2,31.9,23.4,15.7,25.0,14.2,4.0,93,69,47,30.39,30.01,11,2,15,0.00
2013-2-3,36.9,29.8,23.2,29.0,24.1,15.0,94,81,49,30.00,29.83,14,3,25,0.03
2013-2-4,36.2,30.9,22.4,23.0,17.0,12.0,70,57,47,30.11,29.89,14,3,16,0.00
2013-2-5,51.4,38.8,29.6,35.0,28.8,22.0,87,68,51,29.92,29.82,12,2,16,0.00
2013-2-6,50.9,38.7,27.7,34.0,28.2,25.0,91,69,39,30.35,29.93,9,2,13,0.00
2013-2-7,38.9,34.4,27.6,30.0,26.6,23.0,89,74,59,30.42,30.18,9,2,9,0.00
2013-2-8,46.7,37.9,32.6,41.0,32.4,24.0,96,82,57,30.17,29.77,20,5,29,0.27
2013-2-9,45.8,36.9,23.9,24.0,17.2,13.0,75,47,27,30.37,29.96,12,4,22,0.00
2013-2-10,44.3,33.7,22.4,27.0,19.4,14.0,79,57,38,30.48,30.23,10,2,15,0.01
2013-2-11,60.3,46.5,34.7,51.0,38.9,23.0,96,79,29,30.22,29.75,21,5,35,0.04
2013-2-12,59.7,50.0,42.2,31.0,27.0,24.0,66,42,28,29.96,29.80,29,6,38,0.00
2013-2-13,44.9,37.9,33.1,35.0,30.7,27.0,96,76,50,29.91,29.64,9,3,14,0.10
2013-2-14,50.0,40.2,30.4,34.0,28.5,26.0,95,65,39,30.01,29.79,9,2,13,0.00
2013-2-15,58.7,43.7,28.6,39.0,32.0,24.0,90,66,39,30.03,29.87,11,4,21,0.01
2013-2-16,39.2,35.0,29.8,35.0,26.4,14.0,96,73,50,30.00,29.84,12,4,18,0.00
2013-2-17,29.2,26.4,23.8,18.0,8.3,4.0,72,47,37,30.22,29.87,23,8,25,0.00
2013-2-18,45.6,32.8,18.3,22.0,12.8,6.0,62,45,26,30.38,30.17,11,4,16,0.00
2013-2-19,45.3,38.8,32.6,41.0,29.1,18.0,93,70,42,30.15,29.75,18,5,26,0.08
2013-2-20,42.6,35.7,26.2,19.0,15.4,12.0,60,44,31,30.14,29.86,19,8,25,0.01
2013-2-21,44.0,32.1,22.4,20.0,16.2,13.0,72,53,36,30.32,30.13,12,3,16,0.02
2013-2-22,34.9,32.2,28.9,29.0,23.7,18.0,84,71,62,30.36,30.20,6,1,9,0.03
2013-2-23,49.8,38.8,32.8,42.0,34.6,29.0,96,85,71,30.19,29.82,7,1,8,0.00
2013-2-24,54.4,43.5,33.9,41.0,31.3,21.0,97,68,30,30.12,29.80,23,5,27,0.00
2013-2-25,43.9,33.7,23.1,23.0,20.2,17.0,83,60,40,30.22,30.12,8,2,13,0.00
2013-2-26,43.0,34.6,26.2,41.0,31.1,20.0,95,87,73,30.22,29.60,15,6,21,0.92
2013-2-27,54.5,46.1,37.8,43.0,36.9,32.0,97,73,47,29.70,29.55,15,6,22,0.01
2013-2-28,44.7,41.3,37.5,34.0,28.0,25.0,79,60,48,29.75,29.62,21,6,26,0.00
2013-3-1,41.1,38.5,34.1,28.0,25.4,21.0,66,60,55,29.91,29.75,14,4,20,0.00
2013-3-2,36.6,32.1,24.7,25.0,21.1,18.0,86,65,52,29.90,29.83,10,3,18,0.00
2013-3-3,42.4,33.6,26.9,21.0,18.6,16.0,69,55,42,29.94,29.82,16,6,23,0.00
2013-3-4,47.1,35.6,21.9,18.0,13.5,9.0,70,43,23,30.05,29.93,15,5,21,0.00
2013-3-5,48.8,39.5,31.5,32.0,22.6,14.0,95,53,33,30.07,29.75,13,3,15,0.02
2013-3-6,33.5,32.6,32.1,32.0,31.4,31.0,96,96,95,29.76,29.56,27,5,29,0.03
2013-3-7,44.1,41.3,37.3,27.0,25.8,24.0,64,55,49,30.20,30.12,15,8,29,0.00
2013-3-8,45.8,39.8,35.6,31.0,26.8,23.0,70,60,53,30.29,30.17,17,6,36,0.00
2013-3-9,59.4,43.6,29.1,32.0,25.9,19.0,85,55,21,30.35,30.25,8,2,11,0.00
2013-3-10,62.3,47.9,28.6,35.0,27.9,24.0,85,51,30,30.30,30.19,12,4,17,0.00
2013-3-11,57.0,49.5,38.5,50.0,38.1,25.0,83,66,39,30.21,29.90,12,3,15,0.01
2013-3-12,61.4,55.1,43.6,58.0,46.1,29.0,97,74,49,29.93,29.70,15,6,23,1.38
2013-3-13,47.8,41.2,34.0,32.0,24.6,16.0,70,53,35,30.09,29.90,23,9,34,0.00
2013-3-14,46.8,38.2,30.7,21.0,17.0,14.0,56,43,30,30.16,30.05,19,9,35,0.00
2013-3-15,58.5,45.1,30.1,36.0,25.6,16.0,62,47,38,30.11,29.79,14,5,22,0.00
2013-3-16,62.2,48.7,39.6,54.0,42.1,33.0,92,78,54,29.87,29.59,12,4,17,0.09
2013-3-17,39.1,35.5,32.0,36.0,33.5,31.0,96,92,86,30.28,29.87,7,3,10,0.14
2013-3-18,33.0,32.2,31.3,32.0,31.4,30.0,97,96,94,30.30,29.90,5,2,8,0.34
2013-3-19,58.4,42.2,31.0,43.0,26.0,5.0,98,64,19,29.95,29.74,27,8,37,0.16
2013-3-20,51.6,43.7,35.4,21.0,14.0,7.0,45,31,21,30.01,29.75,21,8,29,0.00
2013-3-21,38.5,32.5,27.5,27.0,15.2,9.0,78,51,36,29.92,29.77,18,8,27,0.00
2013-3-22,50.1,36.5,26.7,20.0,15.6,10.0,57,44,29,30.00,29.88,17,6,24,0.00
2013-3-23,55.1,41.4,27.1,25.0,20.4,16.0,73,46,25,30.05,29.89,17,4,21,0.00
2013-3-24,40.7,34.2,31.7,31.0,26.1,21.0,95,73,50,29.99,29.64,7,2,14,0.00
2013-3-25,37.3,34.2,31.0,35.0,32.3,30.0,96,93,85,29.72,29.53,5,0,8,0.55
2013-3-26,46.5,39.5,32.5,32.0,28.6,25.0,85,66,51,30.03,29.72,17,6,25,0.00
2013-3-27,47.4,41.7,36.2,30.0,26.0,23.0,68,54,42,30.15,30.03,20,8,32,0.00
2013-3-28,49.7,42.3,36.5,29.0,26.5,24.0,66,54,45,30.25,30.11,22,7,29,0.00
2013-3-29,55.7,44.4,34.1,33.0,28.4,24.0,83,56,30,30.27,30.15,13,3,18,0.00
2013-3-30,61.2,45.7,28.9,35.0,28.7,24.0,88,55,28,30.23,30.08,11,2,16,0.00
2013-3-31,51.7,44.0,37.6,48.0,39.6,30.0,95,84,69,30.10,29.75,11,2,12,0.03
2013-4-1,62.5,50.9,40.7,47.0,36.3,23.0,97,60,39,29.98,29.76,23,8,31,0.00
2013-4-2,50.9,43.2,35.3,24.0,15.6,9.0,53,34,19,30.17,29.98,22,8,26,0.00
2013-4-3,52.7,39.8,25.4,20.0,16.2,11.0,73,42,19,30.37,30.17,20,6,23,0.00
2013-4-4,45.7,35.5,24.9,34.0,20.7,15.0,94,59,30,30.42,30.06,13,2,17,0.17
2013-4-5,65.0,49.3,35.2,43.0,33.6,28.0,96,62,27,30.04,29.84,20,4,20,0.20
2013-4-6,56.7,47.2,35.8,30.0,23.4,17.0,55,41,21,30.30,30.03,12,4,18,0.00
2013-4-7,70.6,55.9,38.3,45.0,38.3,28.0,76,53,37,30.25,29.99,15,7,21,0.00
2013-4-8,79.8,65.3,49.6,51.0,46.8,42.0,77,54,33,30.07,29.92,14,5,20,0.00
2013-4-9,83.9,72.6,60.0,56.0,53.2,50.0,71,52,37,30.07,29.93,14,4,17,0.00
2013-4-10,89.2,76.4,61.6,61.0,55.5,52.0,72,50,32,29.97,29.77,13,5,19,0.00
2013-4-11,84.5,73.6,58.7,62.0,57.2,53.0,83,58,40,29.84,29.69,16,4,20,0.02
2013-4-12,78.9,67.6,56.3,66.0,54.8,39.0,96,68,32,29.70,29.52,17,6,23,0.87
2013-4-13,70.9,61.1,45.2,42.0,35.4,23.0,76,41,21,29.94,29.70,14,6,21,0.00
2013-4-14,70.4,59.2,42.8,47.0,38.2,24.0,71,47,24,30.10,29.94,10,3,16,0.00
2013-4-15,59.8,55.6,49.9,54.0,50.7,44.0,95,84,58,30.27,30.09,7,2,10,0.11
2013-4-16,70.2,60.8,53.6,61.0,56.6,52.0,97,86,71,30.29,30.14,10,4,15,0.02
2013-4-17,80.2,68.4,57.5,65.0,60.5,55.0,95,77,55,30.19,30.09,12,4,15,0.00
2013-4-18,76.4,65.2,58.8,65.0,58.9,56.0,97,81,55,30.18,29.97,19,4,21,0.03
2013-4-19,74.5,66.7,58.9,66.0,61.1,43.0,94,82,57,29.96,29.59,19,8,23,0.49
2013-4-20,60.7,52.6,44.4,47.0,31.3,24.0,66,45,30,30.31,29.72,15,6,29,0.00
2013-4-21,53.5,45.2,36.4,35.0,30.0,27.0,75,57,41,30.58,30.32,11,4,15,0.00
2013-4-22,56.7,45.4,31.8,40.0,34.5,29.0,89,67,48,30.56,30.37,13,4,15,0.00
2013-4-23,60.3,50.8,44.7,49.0,42.6,38.0,89,74,62,30.38,30.12,9,4,15,0.00
2013-4-24,76.1,60.5,44.0,58.0,50.6,42.0,93,72,45,30.12,29.80,25,7,28,0.00
2013-4-25,65.7,55.2,42.7,46.0,36.8,32.0,73,52,28,30.30,29.97,14,4,25,0.00
2013-4-26,66.3,54.1,38.6,43.0,38.0,32.0,81,57,36,30.45,30.30,10,3,15,0.00
2013-4-27,70.1,57.1,42.5,49.0,43.7,39.0,88,63,40,30.39,30.25,10,2,13,0.00
2013-4-28,56.6,52.5,46.0,52.0,47.7,43.0,94,84,68,30.27,30.12,5,1,10,0.05
2013-4-29,62.6,55.7,51.5,59.0,53.8,50.0,97,93,83,30.15,30.00,7,2,9,0.13
2013-4-30,62.7,56.9,53.7,58.0,54.7,52.0,97,92,81,30.28,30.06,13,4,16,0.05
2013-5-1,70.5,60.0,50.5,52.0,46.8,41.0,94,65,36,30.40,30.26,12,5,15,0.01
2013-5-2,67.7,55.7,41.0,50.0,45.0,39.0,92,70,40,30.41,30.30,9,3,13,0.00
2013-5-3,64.4,60.2,55.8,45.0,44.0,43.0,62,56,48,30.29,30.25,9,6,12,0.00
2013-5-4,64.9,54.3,42.9,52.0,45.3,39.0,88,73,50,30.29,30.16,13,5,16,0.00
2013-5-5,63.5,51.3,40.4,47.0,43.0,38.0,93,75,52,30.23,30.12,11,4,14,0.00
2013-5-6,58.2,53.5,49.7,57.0,51.4,46.0,97,92,79,30.16,30.00,14,6,17,0.38
2013-5-7,62.9,58.0,54.3,61.0,56.9,53.0,97,96,87,30.00,29.86,13,6,18,2.52
2013-5-8,63.7,56.6,49.9,58.0,54.5,49.0,97,92,78,30.00,29.93,13,2,13,0.14
2013-5-9,77.8,60.1,45.3,62.0,53.8,45.0,98,82,48,30.02,29.93,10,3,13,0.02
2013-5-10,82.1,68.0,51.5,64.0,58.1,50.0,95,73,45,30.01,29.84,19,4,30,0.24
2013-5-11,78.5,67.0,60.4,66.0,60.7,57.0,96,82,48,29.87,29.68,17,4,18,0.13
2013-5-12,64.9,59.2,47.7,58.0,40.6,29.0,83,52,32,30.04,29.74,14,6,21,0.00
2013-5-13,59.0,50.2,41.4,39.0,32.4,28.0,79,52,32,30.18,30.03,15,4,21,0.00
2013-5-14,67.6,52.6,34.2,49.0,38.9,31.0,92,63,36,30.22,30.01,10,2,17,0.00
2013-5-15,86.8,66.6,48.6,67.0,54.7,45.0,86,67,36,30.02,29.69,12,3,19,0.00
2013-5-16,83.6,75.7,68.3,67.0,59.1,52.0,81,57,43,29.93,29.77,13,4,18,0.00
2013-5-17,81.1,70.6,57.1,63.0,59.3,55.0,93,70,42,30.11,29.90,8,3,13,0.01
2013-5-18,66.3,61.6,60.3,62.0,59.7,58.0,98,93,84,30.19,30.10,7,2,9,0.05
2013-5-19,68.9,63.0,58.9,65.0,61.6,58.0,98,95,87,30.19,30.07,5,2,10,0.04
2013-5-20,79.6,70.0,64.2,70.0,66.5,64.0,98,89,68,30.09,29.96,9,2,11,0.00
2013-5-21,83.3,72.6,65.1,74.0,68.4,65.0,98,87,68,29.98,29.86,10,3,12,0.00
2013-5-22,86.3,75.2,65.9,73.0,68.8,63.0,98,82,57,29.92,29.80,16,5,23,0.07
2013-5-23,78.8,69.1,62.1,70.0,65.6,60.0,96,89,71,29.88,29.74,16,4,25,0.24
2013-5-24,65.7,58.2,47.4,61.0,47.6,32.0,97,70,47,30.17,29.75,20,6,26,0.04
2013-5-25,66.8,53.5,36.9,41.0,35.6,32.0,84,53,29,30.23,30.12,18,5,28,0.04
2013-5-26,74.0,58.9,42.8,45.0,37.6,32.0,86,49,22,30.23,30.12,11,3,21,0.00
2013-5-27,67.0,56.5,42.2,55.0,46.7,39.0,94,72,43,30.28,30.17,5,1,7,0.00
2013-5-28,84.1,65.8,50.5,67.0,59.5,49.0,96,82,54,30.20,30.05,11,3,17,0.00
2013-5-29,88.6,76.5,64.0,68.0,64.6,62.0,93,70,44,30.11,30.05,11,4,19,0.00
2013-5-30,89.1,77.8,66.1,72.0,65.8,61.0,87,68,39,30.16,30.09,11,4,16,0.00
2013-5-31,88.1,76.9,63.7,67.0,64.3,60.0,91,67,41,30.13,30.00,16,5,19,0.00
2013-6-1,89.0,77.9,65.2,70.0,66.2,62.0,91,69,50,30.03,29.90,12,5,18,0.00
2013-6-2,80.1,73.6,67.6,71.0,67.2,63.0,91,80,69,29.91,29.82,11,6,17,0.00
2013-6-3,81.1,71.9,65.9,70.0,66.8,63.0,97,85,61,29.95,29.80,8,2,12,0.24
2013-6-4,75.6,65.8,56.4,63.0,52.3,44.0,96,66,37,30.13,29.94,12,2,15,0.00
2013-6-5,77.5,68.1,55.3,62.0,57.4,51.0,91,70,49,30.15,30.02,13,2,14,0.02
2013-6-6,66.8,62.4,58.4,64.0,60.1,55.0,98,92,74,30.05,29.83,8,2,10,1.27
2013-6-7,70.6,66.2,63.7,69.0,64.8,63.0,98,95,86,29.82,29.59,11,3,13,0.44
2013-6-8,80.9,70.4,61.6,68.0,63.9,60.0,96,81,56,30.07,29.75,7,2,12,0.01
2013-6-9,78.9,69.5,60.4,73.0,66.2,59.0,98,89,76,30.17,30.05,8,2,10,1.73
2013-6-10,80.3,71.0,66.8,74.0,69.1,66.0,99,94,78,30.09,29.78,18,4,30,1.60
2013-6-11,81.8,72.9,64.7,68.0,64.9,61.0,97,78,54,29.86,29.80,17,4,21,0.00
2013-6-12,89.3,77.5,64.5,74.0,67.3,61.0,92,72,51,29.87,29.76,12,4,17,0.00
2013-6-13,82.8,74.4,68.7,72.0,65.7,56.0,91,75,61,29.78,29.49,21,6,27,0.01
2013-6-14,78.2,69.1,60.2,58.0,55.0,52.0,85,62,47,29.98,29.63,18,5,26,0.00
2013-6-15,82.4,69.7,55.4,64.0,57.9,53.0,92,69,42,30.07,29.97,10,2,16,0.00
2013-6-16,84.0,72.3,59.3,70.0,64.3,57.0,94,77,53,30.01,29.88,9,3,17,0.00
2013-6-17,85.2,74.6,68.3,72.0,67.5,65.0,92,79,56,29.96,29.86,11,3,14,0.03
2013-6-18,75.7,68.7,62.7,69.0,65.8,62.0,96,90,74,29.91,29.77,7,2,11,0.38
2013-6-19,74.4,67.6,60.1,67.0,63.6,59.0,98,88,71,30.13,29.87,9,2,13,0.01
2013-6-20,77.4,69.8,65.0,67.0,64.2,56.0,97,83,64,30.25,30.13,10,2,11,0.01
2013-6-21,81.2,70.2,58.8,64.0,59.3,56.0,91,70,53,30.27,30.20,5,2,10,0.00
2013-6-22,84.9,72.5,60.8,71.0,65.6,58.0,94,80,57,30.24,30.12,11,3,15,0.00
2013-6-23,85.6,75.7,68.0,74.0,69.8,66.0,96,83,63,30.18,30.06,8,2,10,0.04
2013-6-24,88.6,75.8,69.8,75.0,69.8,66.0,92,82,58,30.11,30.02,15,3,20,0.28
2013-6-25,89.3,79.0,67.5,75.0,70.5,65.0,94,76,54,30.04,29.89,8,3,10,0.00
2013-6-26,88.0,74.1,66.5,74.0,70.1,65.0,97,88,60,29.94,29.82,23,3,34,1.34
2013-6-27,83.1,72.4,67.6,74.0,69.6,67.0,99,91,70,29.83,29.61,8,3,11,0.00
2013-6-28,90.2,78.1,67.6,73.0,68.2,59.0,94,73,44,29.64,29.43,16,4,20,0.00
2013-6-29,85.0,76.0,64.1,70.0,64.3,60.0,88,69,46,29.67,29.51,9,3,13,0.00
2013-6-30,84.7,74.2,66.4,74.0,70.0,65.0,97,86,70,29.83,29.66,10,2,15,0.15
2013-7-1,81.0,74.2,69.8,73.0,70.8,69.0,97,89,76,29.95,29.82,9,3,15,0.08
2013-7-2,77.3,73.9,70.8,73.0,71.3,69.0,96,91,84,30.15,29.95,10,4,13,0.09
2013-7-3,83.0,74.1,70.3,75.0,71.8,69.0,98,92,76,30.22,30.14,8,3,12,0.70
2013-7-4,86.4,77.8,71.8,75.0,72.9,71.0,97,85,65,30.23,30.14,12,5,21,0.05
2013-7-5,86.3,78.0,70.3,77.0,72.7,69.0,97,84,63,30.21,30.11,11,4,16,0.06
2013-7-6,87.3,78.2,70.7,76.0,72.2,69.0,96,83,63,30.17,30.06,10,4,15,0.00
2013-7-7,86.5,76.2,70.2,76.0,71.5,67.0,96,86,67,30.10,29.98,21,4,36,0.24
2013-7-8,83.8,73.9,67.6,72.0,69.2,67.0,97,86,61,30.11,30.04,8,3,11,0.04
2013-7-9,85.8,77.4,68.6,75.0,71.4,67.0,95,82,63,30.09,29.99,7,2,9,0.00
2013-7-10,86.1,76.1,72.5,77.0,72.9,70.0,96,90,68,30.00,29.87,17,3,20,0.17
2013-7-11,83.1,75.5,71.2,75.0,71.8,70.0,97,89,67,29.90,29.83,8,3,11,1.08
2013-7-12,72.4,68.8,65.2,71.0,66.0,64.0,96,90,82,30.05,29.89,13,5,15,0.64
2013-7-13,81.9,73.4,62.5,74.0,68.9,61.0,98,86,71,30.23,30.03,7,1,10,0.21
2013-7-14,86.0,77.6,71.1,75.0,72.2,70.0,99,85,63,30.32,30.24,7,2,10,0.01
2013-7-15,90.6,79.6,70.8,78.0,73.1,70.0,96,82,57,30.29,30.19,6,2,9,0.00
2013-7-16,91.0,81.2,70.0,79.0,74.6,69.0,96,81,62,30.23,30.15,7,2,12,0.00
2013-7-17,91.2,80.6,71.8,80.0,74.2,70.0,96,82,57,30.20,30.09,8,1,11,0.00
2013-7-18,91.9,81.5,70.9,81.0,75.2,70.0,96,82,59,30.12,30.00,6,1,8,0.00
2013-7-19,92.0,80.5,73.1,79.0,74.5,70.0,96,83,61,30.01,29.87,11,2,29,0.18
2013-7-20,90.5,79.9,73.0,77.0,73.0,70.0,94,80,61,29.90,29.80,10,3,14,0.00
2013-7-21,87.6,75.8,67.2,75.0,70.9,66.0,97,85,64,29.95,29.86,24,2,31,1.30
2013-7-22,84.4,76.3,69.7,76.0,72.7,69.0,98,89,72,29.92,29.74,12,2,13,0.00
2013-7-23,87.9,77.9,70.4,75.0,70.8,67.0,96,80,55,29.74,29.63,10,2,16,0.00
2013-7-24,82.1,74.8,67.3,73.0,67.8,60.0,94,79,67,29.89,29.66,9,3,13,0.00
2013-7-25,77.1,69.3,59.7,65.0,59.8,55.0,93,72,62,30.03,29.88,11,4,14,0.00
2013-7-26,81.4,68.8,55.4,67.0,61.0,54.0,97,78,52,30.09,30.01,7,1,11,0.00
2013-7-27,76.9,71.0,64.3,71.0,67.4,63.0,96,88,79,30.04,29.91,13,3,14,0.00
2013-7-28,82.6,73.1,67.4,73.0,68.8,66.0,97,87,64,29.97,29.87,6,2,11,0.13
2013-7-29,80.8,69.2,57.9,67.0,61.4,57.0,98,79,45,30.16,29.97,5,1,9,0.01
2013-7-30,80.2,69.4,56.2,67.0,60.9,54.0,95,76,48,30.21,30.13,6,1,10,0.00
2013-7-31,79.6,68.6,60.7,70.0,65.1,60.0,98,89,69,30.14,30.00,7,1,14,0.06
2013-8-1,81.2,70.9,67.3,72.0,68.5,67.0,98,92,70,30.00,29.80,9,2,24,0.38
2013-8-2,84.0,73.5,62.5,69.0,65.1,61.0,96,77,51,29.96,29.86,8,3,12,0.00
2013-8-3,80.3,71.7,65.1,71.0,65.9,61.0,94,82,63,29.96,29.90,6,1,10,0.01
2013-8-4,79.8,69.9,59.4,64.0,60.3,55.0,97,74,49,30.03,29.91,16,3,18,0.00
2013-8-5,78.0,66.8,54.7,65.0,59.2,53.0,96,78,55,30.10,30.00,7,1,10,0.00
2013-8-6,77.3,69.9,64.2,70.0,66.4,63.0,97,89,76,30.04,29.98,7,2,11,0.09
2013-8-7,82.8,74.1,68.5,73.0,70.5,68.0,98,89,71,30.04,29.97,9,3,16,0.11
2013-8-8,81.0,74.8,69.6,76.0,72.0,69.0,97,91,78,30.01,29.96,12,3,14,0.05
2013-8-9,89.8,79.2,71.6,77.0,73.6,71.0,98,84,60,29.95,29.85,14,3,19,0.00
2013-8-10,80.6,74.3,70.8,73.0,71.1,68.0,97,90,72,30.08,29.93,6,1,10,1.02
2013-8-11,80.7,74.3,68.4,74.0,70.9,66.0,97,89,73,30.10,29.99,8,2,11,0.11
2013-8-12,87.0,76.3,67.0,75.0,70.9,67.0,99,85,60,30.01,29.90,9,2,10,0.01
2013-8-13,84.4,75.5,70.7,75.0,70.4,66.0,97,85,63,29.89,29.73,7,2,10,0.01
2013-8-14,74.0,66.6,56.0,67.0,55.1,48.0,88,68,50,30.11,29.80,13,4,17,0.00
2013-8-15,75.1,61.9,49.9,59.0,53.9,49.0,97,77,49,30.18,30.09,6,1,14,0.00
2013-8-16,75.9,63.4,51.4,63.0,56.0,51.0,98,80,52,30.20,30.12,7,1,10,0.01
2013-8-17,76.3,65.1,53.6,63.0,58.7,53.0,98,81,58,30.25,30.18,9,2,10,0.00
2013-8-18,67.8,64.0,59.4,64.0,61.9,58.0,97,93,87,30.23,30.17,10,3,12,1.09
2013-8-19,72.5,67.0,61.2,69.0,65.2,60.0,98,94,87,30.18,30.06,7,2,9,0.01
2013-8-20,83.5,73.4,63.2,73.0,69.1,63.0,99,87,65,30.16,30.07,10,2,11,0.01
2013-8-21,84.3,73.3,65.0,75.0,69.7,65.0,99,89,68,30.18,30.07,7,2,13,0.04
2013-8-22,85.6,73.7,65.0,72.0,68.5,65.0,98,84,57,30.08,29.95,31,3,31,0.21
2013-8-23,72.7,66.3,57.8,69.0,64.8,57.0,98,94,81,30.12,29.93,11,2,18,1.70
2013-8-24,79.4,66.4,54.0,66.0,59.6,54.0,99,81,52,30.31,30.12,8,2,12,0.01
2013-8-25,78.9,67.5,57.7,67.0,61.6,56.0,98,83,58,30.39,30.27,6,1,11,0.00
2013-8-26,83.1,71.3,58.5,69.0,63.4,57.0,96,78,55,30.30,30.02,8,3,12,0.00
2013-8-27,86.0,74.8,66.3,76.0,68.1,63.0,92,80,63,30.02,29.89,10,3,13,0.00
2013-8-28,75.2,72.6,70.1,73.0,70.2,68.0,98,92,80,29.93,29.79,7,3,10,0.29
2013-8-29,81.1,73.7,67.3,74.0,70.9,67.0,99,91,74,30.01,29.81,9,2,14,0.00
2013-8-30,83.2,73.8,64.7,73.0,69.3,64.0,99,86,68,30.02,29.88,10,4,14,0.00
2013-8-31,87.4,74.2,67.7,75.0,70.2,67.0,97,87,63,29.91,29.79,11,4,19,0.13
2013-9-1,85.6,74.5,65.1,75.0,70.5,65.0,99,88,65,29.84,29.75,7,2,9,0.00
2013-9-2,87.3,77.4,68.0,74.0,71.3,67.0,98,83,60,29.80,29.72,6,2,11,0.00
2013-9-3,83.6,73.8,62.3,71.0,66.9,59.0,97,80,57,29.94,29.73,8,2,10,0.00
2013-9-4,79.3,67.4,55.5,66.0,60.8,54.0,98,81,56,30.08,29.95,9,1,11,0.00
2013-9-5,84.6,69.1,53.8,68.0,60.4,53.0,98,76,46,30.12,29.99,9,2,15,0.01
2013-9-6,75.4,63.8,54.7,59.0,54.2,50.0,96,72,51,30.24,30.12,9,2,15,0.00
2013-9-7,79.4,64.9,51.1,66.0,58.9,50.0,98,83,59,30.14,29.93,8,2,11,0.00
2013-9-8,87.7,72.4,60.0,76.0,66.1,59.0,98,82,53,30.01,29.86,7,2,10,0.00
2013-9-9,76.4,69.4,64.3,68.0,62.6,57.0,95,79,66,30.18,30.02,9,3,11,0.00
2013-9-10,89.2,76.5,65.4,75.0,70.2,64.0,96,82,60,30.16,30.08,7,3,11,0.00
2013-9-11,90.1,79.0,68.3,76.0,72.6,68.0,98,82,59,30.13,29.99,8,2,11,0.00
2013-9-12,87.6,74.2,67.0,75.0,69.9,65.0,98,87,60,29.99,29.74,10,2,25,0.83
2013-9-13,75.8,68.3,55.5,68.0,58.3,51.0,93,72,44,29.94,29.70,11,3,16,0.00
2013-9-14,68.2,56.9,47.0,54.0,48.4,45.0,95,75,52,30.16,29.94,8,2,13,0.00
2013-9-15,74.5,59.6,45.3,63.0,53.6,44.0,97,82,58,30.22,30.08,9,2,14,0.00
2013-9-16,69.0,61.1,53.2,63.0,57.7,52.0,95,89,72,30.22,30.05,9,2,18,0.01
2013-9-17,67.1,56.3,45.1,55.0,49.8,44.0,97,81,47,30.41,30.22,8,3,15,0.00
2013-9-18,68.8,54.8,40.6,55.0,48.7,40.0,98,82,55,30.34,30.19,6,1,11,0.01
2013-9-19,74.5,60.8,49.0,62.0,55.6,48.0,98,84,62,30.20,30.07,8,1,8,0.00
2013-9-20,74.5,64.2,53.4,66.0,60.7,53.0,99,89,71,30.08,29.94,5,1,10,0.00
2013-9-21,67.2,64.7,63.1,67.0,64.1,63.0,98,97,95,29.94,29.67,9,2,12,0.63
2013-9-22,71.0,61.7,51.5,62.0,56.5,49.0,99,85,57,29.94,29.73,10,1,11,0.01
2013-9-23,66.4,54.3,45.1,54.0,48.3,44.0,98,82,56,30.10,29.94,13,1,13,0.00
2013-9-24,71.2,57.2,46.0,60.0,52.0,45.0,98,84,60,30.11,29.95,7,1,9,0.00
2013-9-25,72.0,59.1,46.8,61.0,53.4,46.0,99,83,55,29.98,29.88,7,1,12,0.03
2013-9-26,74.5,61.3,51.7,59.0,54.3,50.0,96,80,45,30.07,29.91,7,1,12,0.00
2013-9-27,71.0,59.3,47.8,60.0,54.9,47.0,99,86,64,30.22,30.07,7,1,9,0.00
2013-9-28,64.9,59.4,53.0,58.0,55.8,52.0,98,88,72,30.29,30.21,6,1,9,0.00
2013-9-29,71.3,59.3,48.8,58.0,53.1,48.0,98,82,52,30.21,30.05,7,1,8,0.00
2013-9-30,74.5,59.8,47.0,61.0,54.5,46.0,99,84,58,30.09,29.97,6,1,9,0.01
2013-10-1,80.2,66.5,55.6,65.0,59.0,54.0,97,79,50,30.07,29.98,7,1,10,0.00
2013-10-2,82.2,66.7,52.2,66.0,58.8,51.0,97,79,49,30.09,30.00,10,2,12,0.00
2013-10-3,80.6,67.3,56.9,69.0,62.2,56.0,98,85,60,30.11,30.04,4,0,8,0.00
2013-10-4,86.1,70.3,58.2,71.0,63.7,57.0,98,82,51,30.08,30.01,6,1,7,0.00
2013-10-5,86.1,71.9,60.4,70.0,64.6,60.0,98,80,52,30.09,29.99,9,1,11,0.01
2013-10-6,85.1,72.7,61.8,70.0,65.3,61.0,98,79,53,30.00,29.89,15,4,21,0.00
2013-10-7,71.3,66.1,51.3,69.0,61.7,47.0,98,86,67,30.04,29.76,14,4,23,1.60
2013-10-8,66.1,54.0,43.8,53.0,47.8,43.0,98,81,53,30.28,30.05,11,2,15,0.00
2013-10-9,59.0,54.9,51.0,52.0,49.5,46.0,94,82,72,30.30,30.21,10,5,17,0.24
2013-10-10,60.5,56.9,51.8,60.0,55.5,49.0,97,95,88,30.19,29.99,14,6,18,1.86
2013-10-11,63.9,60.2,57.1,61.0,58.8,56.0,98,95,89,29.98,29.93,11,2,14,0.17
2013-10-12,62.9,61.4,58.8,62.0,60.4,58.0,98,96,95,30.15,29.96,11,6,16,0.14
2013-10-13,60.7,59.0,57.5,60.0,58.1,57.0,97,96,95,30.30,30.14,11,6,16,0.21
2013-10-14,67.7,58.8,51.9,60.0,56.1,51.0,98,91,72,30.33,30.21,6,2,11,0.00
2013-10-15,69.0,57.2,47.2,58.0,52.7,46.0,99,87,58,30.23,30.09,7,1,10,0.01
2013-10-16,70.0,62.3,57.3,63.0,58.6,55.0,95,88,77,30.09,29.92,8,2,11,0.00
2013-10-17,71.3,64.3,58.2,64.0,61.0,55.0,97,89,72,29.91,29.73,12,3,16,0.02
2013-10-18,66.1,56.3,45.8,53.0,45.4,42.0,95,69,45,30.01,29.83,9,2,17,0.00
2013-10-19,61.6,52.3,43.2,55.0,49.1,42.0,98,89,69,29.99,29.79,8,1,10,0.00
2013-10-20,63.0,51.7,38.7,49.0,38.7,34.0,94,63,37,30.11,29.88,11,3,18,0.00
2013-10-21,65.6,51.3,35.1,48.0,42.1,34.0,96,74,46,30.14,29.96,11,3,15,0.00
2013-10-22,68.7,56.9,46.3,53.0,47.6,43.0,92,72,49,29.95,29.79,12,4,15,0.00
2013-10-23,56.7,48.3,41.0,46.0,40.9,34.0,95,77,57,29.94,29.66,10,3,18,0.05
2013-10-24,52.3,44.6,37.8,36.0,31.2,27.0,83,61,42,30.16,29.94,16,4,19,0.00
2013-10-25,53.5,42.4,32.2,31.0,29.2,28.0,83,61,39,30.34,30.16,15,3,15,0.00
2013-10-26,55.6,42.0,27.0,37.0,30.1,25.0,92,66,39,30.33,29.97,13,4,19,0.00
2013-10-27,61.6,47.3,37.4,42.0,37.7,33.0,92,72,43,30.15,29.99,9,2,16,0.00
2013-10-28,63.8,47.6,35.1,47.0,40.6,33.0,95,78,51,30.28,30.14,7,1,10,0.00
2013-10-29,63.6,49.7,38.6,48.0,43.3,37.0,97,81,54,30.38,30.28,5,1,8,0.00
2013-10-30,69.2,56.7,48.2,59.0,52.2,45.0,96,85,68,30.33,30.12,7,2,9,0.05
2013-10-31,67.4,60.2,51.9,61.0,56.7,51.0,98,89,77,30.17,29.77,13,4,16,0.00
2013-11-1,75.5,67.1,54.2,63.0,58.3,50.0,96,75,41,29.76,29.58,21,7,28,0.07
2013-11-2,65.9,55.8,45.3,54.0,44.9,38.0,98,70,39,29.90,29.64,14,3,18,0.00
2013-11-3,57.4,48.8,34.3,38.0,32.6,27.0,79,56,32,30.42,29.90,17,4,23,0.00
2013-11-4,45.7,37.7,32.0,30.0,26.4,24.0,86,65,43,30.63,30.42,10,3,13,0.00
2013-11-5,53.5,43.6,29.7,45.0,36.2,27.0,91,76,53,30.63,30.47,4,1,5,0.00
2013-11-6,66.9,55.5,48.0,53.0,49.0,45.0,93,80,60,30.47,30.07,11,3,16,0.00
2013-11-7,63.1,52.7,43.6,57.0,44.1,25.0,97,75,44,30.09,29.89,18,4,25,0.05
2013-11-8,51.9,42.4,30.0,31.0,26.3,23.0,82,55,35,30.33,30.10,22,4,24,0.00
2013-11-9,55.3,41.4,25.8,33.0,28.5,23.0,91,63,38,30.36,30.07,15,4,20,0.00
2013-11-10,65.4,50.2,38.5,40.0,30.3,26.0,69,49,23,30.26,29.96,19,6,28,0.00
2013-11-11,58.6,46.7,33.2,33.0,29.0,26.0,79,53,32,30.30,30.03,13,4,15,0.00
2013-11-12,51.1,39.9,31.5,38.0,24.0,14.0,66,54,42,30.41,29.96,22,6,27,0.00
2013-11-13,44.1,34.7,27.2,21.0,17.2,15.0,64,50,33,30.51,30.40,13,4,22,0.00
2013-11-14,61.6,41.6,22.1,25.0,19.2,14.0,79,45,19,30.40,30.22,9,3,11,0.00
2013-11-15,61.9,47.8,29.5,43.0,27.4,21.0,92,48,21,30.27,30.17,8,2,11,0.13
2013-11-16,56.7,49.0,40.3,51.0,46.9,39.0,98,93,78,30.30,30.22,7,1,10,0.15
2013-11-17,59.2,54.9,50.7,58.0,54.3,50.0,99,98,96,30.23,29.75,9,4,12,0.04
2013-11-18,66.1,60.1,49.8,60.0,36.7,24.0,97,45,23,29.95,29.71,16,8,33,0.10
2013-11-19,49.6,42.1,30.4,31.0,27.1,25.0,83,57,39,30.36,29.95,12,4,20,0.00
2013-11-20,45.7,35.3,27.0,30.0,25.6,24.0,90,70,44,30.56,30.36,7,2,13,0.00
2013-11-21,48.4,41.1,28.7,41.0,35.9,26.0,94,82,74,30.57,30.39,6,1,7,0.00
2013-11-22,66.0,55.8,45.2,55.0,48.7,40.0,84,77,66,30.39,30.00,9,4,15,0.00
2013-11-23,60.5,47.2,33.1,51.0,29.1,13.0,76,52,22,30.20,30.01,19,6,30,0.00
2013-11-24,31.5,26.2,19.9,19.0,6.2,3.0,64,43,32,30.54,30.21,24,8,30,0.00
2013-11-25,36.0,26.9,15.3,16.0,11.5,8.0,83,54,36,30.58,30.34,10,4,14,0.00
2013-11-26,38.9,34.1,31.9,38.0,28.0,15.0,97,80,46,30.35,29.61,14,3,17,1.46
2013-11-27,40.7,37.5,29.0,39.0,30.5,13.0,98,78,52,30.08,29.52,16,4,25,0.27
2013-11-28,39.8,31.3,24.3,21.0,17.3,13.0,79,57,44,30.46,30.09,12,3,24,0.00
2013-11-29,44.0,31.5,20.4,27.0,22.2,18.0,91,70,46,30.72,30.45,7,2,9,0.00
2013-11-30,39.3,29.1,19.3,25.0,21.9,17.0,90,75,57,30.72,30.38,5,1,8,0.00
2013-12-1,50.8,34.8,19.7,34.0,27.3,18.0,94,76,49,30.36,30.02,4,1,6,0.00
2013-12-2,47.4,42.1,38.4,36.0,34.4,33.0,86,74,60,30.01,29.86,6,1,9,0.00
2013-12-3,53.5,42.4,34.7,40.0,36.6,33.0,94,81,60,29.99,29.87,5,1,9,0.00
2013-12-4,60.2,49.9,38.5,51.0,45.1,36.0,92,84,70,30.06,29.98,7,2,9,0.00
2013-12-5,63.1,58.0,51.5,61.0,56.0,50.0,98,93,85,30.05,29.92,9,4,14,0.00
2013-12-6,63.6,51.1,40.4,63.0,50.2,40.0,98,97,91,30.13,29.87,15,5,16,1.00
2013-12-7,43.3,36.9,28.8,39.0,33.3,26.0,97,87,69,30.53,30.11,6,2,11,0.09
2013-12-8,31.3,29.0,27.1,31.0,26.2,22.0,97,89,77,30.57,30.30,6,2,13,0.00
2013-12-9,35.2,32.8,31.0,35.0,32.1,30.0,98,97,96,30.31,30.03,3,0,5,0.28
2013-12-10,38.4,33.2,29.0,37.0,28.4,18.0,98,85,50,30.23,29.99,13,2,23,0.27
2013-12-11,43.1,32.5,24.6,25.0,20.8,16.0,87,63,43,30.40,30.24,9,2,13,0.12
2013-12-12,36.3,31.1,24.8,22.0,13.0,6.0,71,48,30,30.41,30.25,11,4,18,0.02
2013-12-13,46.3,35.1,25.3,25.0,17.2,10.0,77,50,34,30.30,30.21,12,4,21,0.05
2013-12-14,36.8,33.8,31.4,35.0,31.0,25.0,97,89,72,30.31,29.74,9,2,11,0.30
2013-12-15,47.2,38.6,32.6,40.0,30.5,24.0,98,75,50,29.96,29.64,16,6,24,0.00
2013-12-16,42.7,35.7,31.3,32.0,28.4,26.0,85,75,59,30.17,29.95,10,2,12,0.00
2013-12-17,47.6,34.9,26.2,37.0,30.5,24.0,93,84,68,30.13,29.91,8,3,10,0.00
2013-12-18,42.7,36.4,31.0,32.0,22.9,20.0,92,59,43,30.22,30.00,16,4,19,0.00
2013-12-19,64.8,45.7,30.0,34.0,26.8,20.0,70,50,26,30.19,30.07,15,4,20,0.00
2013-12-20,60.1,49.4,41.8,39.0,33.4,29.0,65,55,39,30.13,30.00,8,3,12,0.00
2013-12-21,68.8,58.7,48.2,60.0,50.0,39.0,84,73,62,30.04,29.90,16,7,22,0.00
2013-12-22,69.1,64.0,59.3,64.0,59.9,56.0,94,86,67,29.98,29.82,17,7,26,0.21
2013-12-23,61.2,54.8,37.1,61.0,49.7,28.0,98,84,62,30.20,29.91,12,4,19,0.53
2013-12-24,39.3,31.7,21.9,29.0,20.9,6.0,92,67,40,30.48,30.19,18,4,23,0.00
2013-12-25,32.7,24.3,15.5,16.0,13.3,8.0,85,64,47,30.57,30.38,7,2,11,0.00
2013-12-26,48.8,34.3,22.7,28.0,18.8,14.0,74,55,34,30.37,30.21,12,4,20,0.00
2013-12-27,51.4,37.5,23.0,26.0,21.5,18.0,81,55,32,30.43,30.32,8,3,14,0.00
2013-12-28,58.4,43.5,27.0,29.0,25.0,20.0,79,51,28,30.35,30.11,10,3,13,0.00
2013-12-29,52.0,44.6,38.9,49.0,39.6,28.0,98,84,50,30.12,29.57,15,3,23,1.52
2013-12-30,47.8,40.8,31.8,40.0,33.4,27.0,89,76,59,30.17,29.82,8,2,12,0.00
2013-12-31,45.4,34.9,27.2,31.0,23.3,17.0,89,66,38,30.33,30.13,25,4,30,0.00
2014-1-1,48.0,35.1,23.3,28.0,24.0,19.0,87,66,46,30.40,30.12,8,2,10,0.00
2014-1-2,38.7,32.7,28.3,31.0,27.9,24.0,96,83,67,30.11,29.62,7,2,10,0.03